Location: Narrabri
(30.3170°S, 149.7830°E)
Time: 15:04:17
(UTC+11:00)

Vanguard 2 - All Passes

Search period start: 23 October 2017 00:00
Search period end: 02 November 2017 00:00
Orbit: 554 x 2939 km, 32.9° (Epoch: 22 October)

Date Brightness Start Highest point End Pass type
(mag) Time Alt. Az. Time Alt. Az. Time Alt. Az.
23 Oct - 01:39:49 10° WSW 01:50:36 75° NNW 02:07:19 10° ENE visible
23 Oct - 03:49:58 10° W 04:02:27 40° NNW 04:18:12 10° NNE visible
23 Oct - 06:07:25 10° WNW 06:14:13 13° NW 06:21:14 10° NNW daylight
23 Oct - 19:34:22 10° NW 19:38:44 44° NNE 19:45:13 10° E visible
23 Oct - 21:41:29 10° W 21:47:26 79° S 21:57:39 10° E visible
23 Oct - 23:49:30 10° WSW 23:57:44 83° S 00:11:51 10° E visible
24 Oct - 01:58:06 10° WSW 02:08:57 64° NNW 02:25:27 10° NE visible
24 Oct - 04:09:02 10° W 04:20:44 31° NW 04:35:02 10° NNE visible
24 Oct - 17:48:25 10° NNE 17:49:21 11° NE 17:50:18 10° NE daylight
24 Oct - 19:52:10 10° WNW 19:56:43 63° NNE 20:03:44 10° ESE visible
24 Oct - 21:59:40 10° W 22:05:48 75° S 22:16:18 10° E visible
25 Oct - 00:07:41 10° WSW 00:16:07 89° NNW 00:30:31 10° ENE visible
25 Oct - 02:16:28 10° W 02:27:18 53° NNW 02:43:17 10° NE visible
25 Oct - 04:28:40 10° W 04:39:02 23° NW 04:51:13 10° N visible
25 Oct - 18:04:11 10° N 18:07:07 19° NE 18:10:32 10° E daylight
25 Oct - 20:10:09 10° WNW 20:14:51 83° NNE 20:22:12 10° ESE visible
25 Oct - 22:17:51 10° W 22:24:10 74° S 22:35:00 10° E visible
26 Oct - 00:25:51 10° WSW 00:34:27 79° NNW 00:49:00 10° ENE visible
26 Oct - 02:35:01 10° W 02:45:39 42° NNW 03:00:47 10° NNE visible
26 Oct - 04:49:27 10° WNW 04:57:24 16° NW 05:06:16 10° N visible
26 Oct - 18:21:23 10° NNW 18:24:58 30° NNE 18:29:26 10° E daylight
26 Oct - 20:28:16 10° W 20:33:04 81° S 20:40:40 10° ESE visible
26 Oct - 22:36:02 10° WSW 22:42:30 78° S 22:53:42 10° E visible
27 Oct - 00:44:03 10° WSW 00:52:47 67° NNW 01:07:17 10° NE visible
27 Oct - 02:53:50 10° W 03:04:00 33° NNW 03:17:50 10° NNE visible
27 Oct - 18:39:01 10° NW 18:42:55 47° NNE 18:47:58 10° E daylight
27 Oct - 20:46:27 10° W 20:51:20 73° S 20:59:10 10° E visible
27 Oct - 22:54:11 10° WSW 23:00:50 86° SSE 23:12:21 10° ENE visible
28 Oct - 01:02:20 10° W 01:11:07 55° NNW 01:25:17 10° NE visible
28 Oct - 03:13:07 10° W 03:22:23 25° NNW 03:34:19 10° NNE visible
28 Oct - 16:51:29 10° N 16:53:19 13° NNE 16:55:10 10° ENE daylight
28 Oct - 18:56:55 10° WNW 19:00:58 70° NNE 19:06:23 10° ESE daylight
28 Oct - 21:04:37 10° W 21:09:39 70° S 21:17:44 10° E visible
28 Oct - 23:12:19 10° WSW 23:19:07 83° NNW 23:30:54 10° ENE visible
29 Oct - 01:20:46 10° W 01:29:27 43° NNW 01:42:56 10° NE visible
29 Oct - 03:33:18 10° WNW 03:40:49 17° NW 03:49:52 10° N visible
29 Oct - 17:08:08 10° NNW 17:11:17 22° NNE 17:14:31 10° E daylight
29 Oct - 19:15:00 10° WNW 19:19:07 87° SSW 19:24:43 10° ESE daylight
29 Oct - 21:22:47 10° WSW 21:27:56 72° S 21:36:20 10° E visible
29 Oct - 23:30:29 10° WSW 23:37:23 70° NNW 23:49:15 10° ENE visible
30 Oct - 01:39:26 10° W 01:47:49 33° NNW 02:00:11 10° NNE visible
30 Oct - 03:56:17 10° NW 03:59:22 11° NW 04:02:38 10° NNW visible
30 Oct - 17:25:34 10° NW 17:29:16 35° NNE 17:33:09 10° E daylight
30 Oct - 19:33:10 10° W 19:37:19 72° S 19:43:05 10° ESE daylight
30 Oct - 21:40:56 10° WSW 21:46:12 79° S 21:54:55 10° E visible
30 Oct - 23:48:42 10° W 23:55:40 56° NNW 00:07:22 10° NE visible
31 Oct - 01:58:30 10° W 02:06:14 25° NNW 02:16:54 10° NNE night (unlit)
31 Oct - 15:38:17 10° NNE 15:39:22 11° NNE 15:40:24 10° NE daylight
31 Oct - 17:43:22 10° WNW 17:47:18 56° NNE 17:51:32 10° E daylight
31 Oct - 19:51:22 10° W 19:55:34 66° S 20:01:30 10° E visible
31 Oct - 21:59:03 10° WSW 22:04:27 89° N 22:13:27 10° ENE visible
01 Nov - 00:07:02 10° W 00:13:58 43° NNW 00:25:10 10° NE visible
01 Nov - 02:18:20 10° WNW 02:24:43 17° NNW 02:32:45 10° N night (unlit)
01 Nov - 15:54:13 10° NNW 15:57:28 19° NNE 16:00:21 10° ENE daylight
01 Nov - 18:01:24 10° WNW 18:05:25 82° NNE 18:09:48 10° ESE daylight
01 Nov - 20:09:33 10° W 20:13:50 65° S 20:19:58 10° E visible
01 Nov - 22:17:10 10° WSW 22:22:40 73° NNW 22:31:49 10° ENE visible
